QPF
0.01 0.01 0.01 0.02 0.04 0.03 0.02 0.01 0.00 0.00 0.00 0.01 0.01 0.01 0.01 0.01 0.01 0.01 0.01 0.03 0.04 0.06 0.07 0.08 0.09 0.09 0.08 0.07 0.05 0.06 0.06 0.06 0.05 0.04 0.04 0.05 0.05 0.04 0.04 0.04 0.04 0.04 0.04
0.02 0.01 0.01 0.02 0.03 0.04 0.04 0.03 0.01 0.01 0.02 0.01 0.02 0.02 0.02 0.02 0.01 0.01 0.00 0.01 0.02 0.03 0.05 0.07 0.09 0.09 0.09 0.07 0.07 0.07 0.06 0.06 0.06 0.05 0.05 0.04 0.04 0.04 0.04 0.04 0.04 0.06 0.06
0.04 0.02 0.02 0.03 0.04 0.05 0.07 0.05 0.03 0.02 0.02 0.02 0.03 0.03 0.03 0.03 0.02 0.01 0.00 0.00 0.01 0.02 0.04 0.06 0.07 0.08 0.09 0.08 0.07 0.06 0.07 0.07 0.07 0.07 0.05 0.03 0.03 0.03 0.05 0.04 0.04 0.07 0.09
0.04 0.03 0.03 0.03 0.03 0.05 0.06 0.06 0.05 0.04 0.04 0.04 0.03 0.03 0.03 0.03 0.02 0.01 0.01 0.01 0.01 0.01 0.02 0.04 0.06 0.09 0.11 0.10 0.08 0.07 0.07 0.07 0.09 0.07 0.05 0.04 0.03 0.02 0.02 0.03 0.03 0.05 0.09
0.04 0.03 0.03 0.02 0.02 0.03 0.04 0.06 0.05 0.05 0.05 0.04 0.05 0.05 0.04 0.03 0.02 0.02 0.02 0.01 0.01 0.01 0.01 0.02 0.04 0.06 0.10 0.12 0.12 0.11 0.11 0.11 0.12 0.06 0.04 0.04 0.03 0.02 0.01 0.02 0.02 0.03 0.06
0.04 0.03 0.03 0.02 0.02 0.02 0.02 0.04 0.06 0.06 0.04 0.04 0.04 0.04 0.03 0.03 0.04 0.03 0.02 0.01 0.01 0.01 0.01 0.01 0.03 0.06 0.09 0.10 0.11 0.09 0.11 0.14 0.12 0.05 0.02 0.02 0.02 0.02 0.01 0.02 0.03 0.02 0.03
0.03 0.02 0.02 0.02 0.02 0.02 0.02 0.02 0.03 0.06 0.06 0.04 0.04 0.03 0.02 0.02 0.01 0.01 0.01 0.01 0.01 0.01 0.01 0.01 0.03 0.07 0.08 0.11 0.10 0.08 0.11 0.13 0.11 0.07 0.03 0.02 0.02 0.02 0.02 0.02 0.03 0.03 0.02
0.03 0.02 0.01 0.01 0.01 0.02 0.02 0.02 0.01 0.02 0.04 0.04 0.03 0.02 0.02 0.01 0.01 0.01 0.00 0.00 0.00 0.01 0.01 0.01 0.03 0.07 0.09 0.13 0.13 0.09 0.08 0.09 0.11 0.09 0.06 0.03 0.02 0.02 0.02 0.02 0.03 0.03 0.03
0.03 0.02 0.01 0.01 0.02 0.01 0.02 0.01 0.01 0.01 0.01 0.01 0.02 0.02 0.02 0.02 0.01 0.00 0.00 0.00 0.00 0.00 0.01 0.02 0.03 0.07 0.06 0.08 0.11 0.09 0.08 0.07 0.08 0.08 0.07 0.05 0.03 0.02 0.03 0.03 0.04 0.05 0.03
0.02 0.02 0.01 0.01 0.01 0.01 0.01 0.01 0.01 0.01 0.01 0.00 0.01 0.01 0.01 0.01 0.01 0.01 0.00 0.01 0.01 0.01 0.01 0.01 0.02 0.05 0.05 0.05 0.05 0.06 0.05 0.05 0.07 0.06 0.06 0.06 0.05 0.03 0.03 0.03 0.05 0.04 0.03
0.01 0.01 0.01 0.01 0.00 0.00 0.01 0.01 0.01 0.01 0.01 0.01 0.01 0.01 0.00 0.00 0.00 0.00 0.00 0.01 0.01 0.01 0.01 0.01 0.01 0.02 0.03 0.04 0.04 0.04 0.03 0.03 0.05 0.06 0.07 0.07 0.06 0.06 0.05 0.04 0.04 0.05 0.04
0.01 0.01 0.00 0.01 0.00 0.00 0.00 0.00 0.01 0.01 0.01 0.00 0.00 0.01 0.00 0.01 0.01 0.01 0.00 0.00 0.01 0.01 0.01 0.01 0.01 0.01 0.02 0.02 0.02 0.04 0.05 0.04 0.04 0.06 0.09 0.10 0.11 0.09 0.08 0.05 0.03 0.04 0.05
0.02 0.01 0.01 0.01 0.00 0.00 0.00 0.00 0.00 0.00 0.00 0.01 0.01 0.01 0.01 0.01 0.01 0.01 0.01 0.00 0.00 0.01 0.01 0.02 0.01 0.01 0.01 0.02 0.03 0.04 0.05 0.05 0.04 0.04 0.12 0.14 0.18 0.12 0.08 0.07 0.04 0.04 0.05
0.02 0.02 0.02 0.01 0.01 0.01 0.01 0.00 0.00 0.00 0.00 0.01 0.01 0.01 0.01 0.01 0.01 0.01 0.01 0.01 0.01 0.01 0.01 0.01 0.01 0.01 0.01 0.01 0.03 0.03 0.04 0.06 0.04 0.04 0.08 0.09 0.14 0.16 0.10 0.07 0.05 0.04 0.03
0.03 0.02 0.02 0.02 0.02 0.02 0.01 0.01 0.00 0.00 0.00 0.00 0.01 0.01 0.01 0.01 0.01 0.01 0.01 0.01 0.02 0.01 0.01 0.00 0.01 0.01 0.01 0.01 0.02 0.04 0.05 0.06 0.05 0.05 0.06 0.06 0.10 0.12 0.10 0.07 0.06 0.03 0.02
0.04 0.03 0.03 0.03 0.04 0.04 0.03 0.03 0.01 0.00 0.00 0.00 0.01 0.01 0.01 0.01 0.00 0.01 0.01 0.01 0.01 0.01 0.01 0.01 0.01 0.01 0.01 0.01 0.02 0.04 0.05 0.06 0.05 0.05 0.06 0.06 0.06 0.06 0.04 0.04 0.05 0.05 0.03
0.02 0.02 0.02 0.03 0.03 0.03 0.04 0.03 0.03 0.02 0.01 0.01 0.01 0.01 0.01 0.01 0.01 0.01 0.01 0.02 0.01 0.01 0.01 0.00 0.00 0.00 0.01 0.01 0.02 0.04 0.06 0.08 0.07 0.06 0.04 0.05 0.04 0.02 0.02 0.03 0.04 0.04 0.04
0.01 0.01 0.01 0.01 0.02 0.03 0.03 0.03 0.03 0.03 0.02 0.01 0.00 0.00 0.01 0.01 0.01 0.00 0.00 0.00 0.01 0.01 0.01 0.00 0.00 0.00 0.01 0.01 0.02 0.04 0.05 0.07 0.08 0.07 0.05 0.04 0.04 0.03 0.02 0.02 0.03 0.03 0.04
0.01 0.02 0.01 0.01 0.02 0.03 0.04 0.03 0.03 0.03 0.02 0.02 0.01 0.01 0.01 0.01 0.01 0.01 0.01 0.01 0.01 0.01 0.01 0.01 0.01 0.00 0.01 0.02 0.02 0.03 0.04 0.05 0.07 0.07 0.05 0.03 0.03 0.02 0.02 0.01 0.01 0.02 0.02
0.02 0.02 0.02 0.02 0.03 0.03 0.03 0.04 0.04 0.04 0.03 0.03 0.02 0.01 0.01 0.01 0.02 0.02 0.01 0.01 0.01 0.01 0.01 0.01 0.01 0.01 0.01 0.02 0.03 0.02 0.03 0.04 0.04 0.05 0.04 0.03 0.02 0.02 0.02 0.01 0.01 0.01 0.01
0.03 0.03 0.03 0.02 0.02 0.02 0.03 0.04 0.04 0.04 0.04 0.03 0.03 0.02 0.02 0.02 0.03 0.04 0.04 0.03 0.02 0.01 0.01 0.01 0.01 0.01 0.01 0.02 0.03 0.03 0.03 0.03 0.03 0.03 0.04 0.03 0.02 0.02 0.01 0.01 0.01 0.01 0.01
0.02 0.03 0.03 0.02 0.03 0.03 0.03 0.03 0.03 0.03 0.03 0.04 0.03 0.03 0.02 0.02 0.03 0.05 0.05 0.03 0.03 0.02 0.01 0.01 0.01 0.01 0.01 0.02 0.03 0.03 0.03 0.02 0.02 0.02 0.03 0.02 0.02 0.02 0.01 0.01 0.01 0.01 0.01
0.03 0.03 0.02 0.02 0.02 0.02 0.03 0.03 0.03 0.03 0.03 0.03 0.03 0.04 0.03 0.03 0.02 0.02 0.02 0.02 0.02 0.03 0.03 0.02 0.02 0.01 0.02 0.02 0.03 0.03 0.02 0.02 0.02 0.01 0.02 0.03 0.02 0.01 0.01 0.01 0.01 0.01 0.01
0.05 0.04 0.03 0.01 0.02 0.03 0.03 0.03 0.03 0.03 0.04 0.03 0.03 0.03 0.04 0.04 0.03 0.02 0.02 0.01 0.01 0.01 0.02 0.03 0.03 0.02 0.02 0.03 0.04 0.03 0.02 0.02 0.02 0.01 0.02 0.03 0.02 0.01 0.01 0.01 0.01 0.01 0.01
0.05 0.04 0.04 0.03 0.01 0.01 0.01 0.02 0.02 0.02 0.02 0.03 0.03 0.03 0.04 0.04 0.04 0.02 0.01 0.01 0.01 0.01 0.02 0.03 0.04 0.03 0.04 0.05 0.05 0.04 0.03 0.02 0.02 0.02 0.02 0.03 0.01 0.01 0.01 0.01 0.01 0.01 0.01
0.04 0.03 0.03 0.03 0.03 0.02 0.01 0.01 0.01 0.01 0.01 0.02 0.03 0.04 0.05 0.04 0.04 0.03 0.02 0.01 0.01 0.01 0.00 0.01 0.03 0.04 0.05 0.06 0.05 0.04 0.03 0.03 0.02 0.02 0.02 0.02 0.01 0.01 0.01 0.01 0.01 0.01 0.01
MSLP
1014.67 1014.97 1015.22 1015.45 1015.70 1016.01 1016.39 1016.83 1017.31 1017.78 1018.20 1018.54 1018.78 1018.91 1018.98 1019.00 1019.01 1019.05 1019.14 1019.29 1019.49 1019.73 1020.01 1020.30 1020.59 1020.87 1021.12 1021.34 1021.51 1021.65 1021.73 1021.79 1021.81 1021.82 1021.83 1021.84 1021.84 1021.82 1021.77 1021.67 1021.52 1021.33 1021.11
1014.71 1015.06 1015.38 1015.68 1016.00 1016.37 1016.80 1017.28 1017.78 1018.28 1018.73 1019.10 1019.37 1019.55 1019.65 1019.70 1019.72 1019.76 1019.82 1019.94 1020.10 1020.31 1020.55 1020.82 1021.09 1021.36 1021.60 1021.82 1022.00 1022.14 1022.25 1022.31 1022.36 1022.38 1022.40 1022.41 1022.41 1022.38 1022.32 1022.21 1022.04 1021.84 1021.61
1014.64 1015.05 1015.45 1015.84 1016.25 1016.69 1017.18 1017.70 1018.24 1018.77 1019.25 1019.66 1019.98 1020.21 1020.36 1020.45 1020.50 1020.53 1020.58 1020.66 1020.78 1020.93 1021.12 1021.34 1021.57 1021.81 1022.05 1022.26 1022.44 1022.59 1022.70 1022.78 1022.83 1022.87 1022.90 1022.92 1022.92 1022.90 1022.83 1022.72 1022.55 1022.35 1022.11
1014.50 1014.97 1015.44 1015.93 1016.43 1016.95 1017.50 1018.07 1018.64 1019.20 1019.71 1020.16 1020.54 1020.83 1021.04 1021.19 1021.28 1021.34 1021.38 1021.43 1021.49 1021.59 1021.72 1021.87 1022.06 1022.26 1022.47 1022.66 1022.84 1022.98 1023.10 1023.18 1023.25 1023.30 1023.33 1023.36 1023.37 1023.35 1023.30 1023.19 1023.03 1022.83 1022.59
1014.30 1014.83 1015.38 1015.95 1016.54 1017.13 1017.74 1018.34 1018.93 1019.50 1020.04 1020.54 1020.97 1021.33 1021.63 1021.85 1022.00 1022.10 1022.16 1022.20 1022.23 1022.27 1022.34 1022.44 1022.57 1022.73 1022.90 1023.07 1023.23 1023.36 1023.47 1023.56 1023.62 1023.67 1023.71 1023.75 1023.77 1023.76 1023.72 1023.63 1023.48 1023.28 1023.04
1014.10 1014.66 1015.27 1015.91 1016.56 1017.21 1017.85 1018.47 1019.07 1019.66 1020.21 1020.74 1021.23 1021.68 1022.06 1022.37 1022.61 1022.78 1022.88 1022.93 1022.95 1022.97 1022.99 1023.04 1023.12 1023.23 1023.36 1023.51 1023.64 1023.76 1023.85 1023.93 1023.98 1024.03 1024.07 1024.11 1024.13 1024.14 1024.11 1024.03 1023.89 1023.70 1023.45
1013.89 1014.48 1015.13 1015.82 1016.51 1017.19 1017.85 1018.47 1019.07 1019.65 1020.22 1020.78 1021.32 1021.85 1022.33 1022.75 1023.09 1023.34 1023.51 1023.60 1023.63 1023.64 1023.64 1023.66 1023.71 1023.78 1023.88 1023.99 1024.10 1024.19 1024.26 1024.32 1024.35 1024.39 1024.42 1024.46 1024.49 1024.51 1024.49 1024.42 1024.29 1024.10 1023.85
1013.70 1014.30 1014.98 1015.69 1016.40 1017.09 1017.74 1018.35 1018.94 1019.51 1020.08 1020.67 1021.27 1021.86 1022.43 1022.96 1023.41 1023.76 1024.01 1024.16 1024.24 1024.27 1024.27 1024.28 1024.31 1024.36 1024.43 1024.51 1024.59 1024.66 1024.70 1024.73 1024.75 1024.76 1024.79 1024.82 1024.86 1024.88 1024.87 1024.81 1024.69 1024.50 1024.24
1013.51 1014.12 1014.80 1015.52 1016.24 1016.93 1017.57 1018.17 1018.74 1019.30 1019.88 1020.48 1021.11 1021.77 1022.42 1023.03 1023.58 1024.02 1024.36 1024.59 1024.73 1024.80 1024.84 1024.86 1024.88 1024.93 1024.99 1025.05 1025.10 1025.14 1025.16 1025.16 1025.16 1025.15 1025.17 1025.19 1025.23 1025.26 1025.26 1025.21 1025.09 1024.90 1024.64
1013.30 1013.92 1014.61 1015.33 1016.05 1016.74 1017.38 1017.98 1018.54 1019.09 1019.66 1020.27 1020.93 1021.62 1022.32 1023.00 1023.62 1024.14 1024.56 1024.86 1025.07 1025.20 1025.28 1025.33 1025.38 1025.44 1025.49 1025.55 1025.58 1025.60 1025.60 1025.58 1025.56 1025.54 1025.54 1025.56 1025.60 1025.63 1025.64 1025.60 1025.49 1025.30 1025.04
1013.06 1013.69 1014.39 1015.13 1015.86 1016.56 1017.21 1017.81 1018.37 1018.92 1019.49 1020.10 1020.76 1021.46 1022.18 1022.88 1023.54 1024.11 1024.59 1024.96 1025.23 1025.42 1025.57 1025.67 1025.76 1025.84 1025.91 1025.97 1026.00 1026.01 1025.99 1025.96 1025.92 1025.90 1025.89 1025.91 1025.95 1025.98 1026.00 1025.96 1025.86 1025.69 1025.44
1012.76 1013.43 1014.15 1014.91 1015.66 1016.39 1017.06 1017.68 1018.26 1018.82 1019.39 1019.99 1020.63 1021.30 1022.00 1022.70 1023.35 1023.95 1024.45 1024.87 1025.21 1025.47 1025.68 1025.85 1026.00 1026.12 1026.22 1026.29 1026.33 1026.34 1026.32 1026.28 1026.24 1026.21 1026.21 1026.22 1026.26 1026.30 1026.32 1026.29 1026.20 1026.04 1025.81
1012.42 1013.12 1013.87 1014.66 1015.46 1016.22 1016.94 1017.60 1018.21 1018.78 1019.34 1019.92 1020.52 1021.15 1021.80 1022.45 1023.08 1023.66 1024.18 1024.64 1025.03 1025.36 1025.64 1025.88 1026.09 1026.27 1026.41 1026.51 1026.57 1026.58 1026.57 1026.54 1026.50 1026.48 1026.47 1026.50 1026.53 1026.57 1026.59 1026.57 1026.49 1026.34 1026.13
1012.02 1012.76 1013.56 1014.40 1015.24 1016.05 1016.82 1017.53 1018.17 1018.76 1019.32 1019.87 1020.43 1021.00 1021.58 1022.16 1022.74 1023.29 1023.81 1024.29 1024.73 1025.12 1025.48 1025.80 1026.08 1026.32 1026.51 1026.64 1026.73 1026.76 1026.77 1026.74 1026.72 1026.70 1026.71 1026.73 1026.77 1026.81 1026.82 1026.80 1026.73 1026.60 1026.42
1011.59 1012.38 1013.22 1014.10 1014.99 1015.85 1016.67 1017.42 1018.10 1018.72 1019.28 1019.80 1020.31 1020.82 1021.32 1021.84 1022.36 1022.87 1023.39 1023.89 1024.37 1024.83 1025.26 1025.66 1026.01 1026.31 1026.55 1026.73 1026.84 1026.90 1026.93 1026.92 1026.91 1026.91 1026.92 1026.95 1026.99 1027.02 1027.03 1027.01 1026.94 1026.83 1026.67
1011.14 1011.97 1012.85 1013.77 1014.69 1015.60 1016.46 1017.26 1017.98 1018.62 1019.18 1019.69 1020.15 1020.60 1021.04 1021.50 1021.97 1022.45 1022.96 1023.48 1024.01 1024.53 1025.04 1025.51 1025.93 1026.29 1026.58 1026.79 1026.94 1027.03 1027.07 1027.09 1027.09 1027.11 1027.13 1027.16 1027.20 1027.22 1027.23 1027.20 1027.13 1027.03 1026.89
1010.70 1011.57 1012.47 1013.40 1014.35 1015.28 1016.18 1017.01 1017.76 1018.42 1018.99 1019.49 1019.94 1020.35 1020.75 1021.16 1021.60 1022.07 1022.58 1023.13 1023.70 1024.27 1024.84 1025.37 1025.86 1026.27 1026.60 1026.85 1027.02 1027.14 1027.20 1027.24 1027.27 1027.30 1027.34 1027.38 1027.41 1027.43 1027.42 1027.38 1027.32 1027.22 1027.10
1010.28 1011.16 1012.07 1013.01 1013.96 1014.90 1015.81 1016.67 1017.45 1018.13 1018.72 1019.23 1019.67 1020.07 1020.46 1020.85 1021.27 1021.74 1022.26 1022.83 1023.43 1024.06 1024.67 1025.26 1025.78 1026.23 1026.60 1026.87 1027.08 1027.21 1027.31 1027.37 1027.43 1027.48 1027.53 1027.58 1027.61 1027.62 1027.61 1027.56 1027.49 1027.40 1027.30
1009.88 1010.77 1011.67 1012.59 1013.53 1014.47 1015.38 1016.25 1017.05 1017.76 1018.37 1018.90 1019.36 1019.77 1020.16 1020.55 1020.98 1021.45 1021.98 1022.57 1023.20 1023.85 1024.50 1025.11 1025.67 1026.14 1026.53 1026.83 1027.06 1027.22 1027.34 1027.44 1027.52 1027.60 1027.68 1027.74 1027.78 1027.79 1027.77 1027.72 1027.64 1027.56 1027.47
1009.49 1010.37 1011.26 1012.16 1013.07 1013.99 1014.89 1015.76 1016.58 1017.31 1017.96 1018.52 1019.01 1019.45 1019.85 1020.26 1020.70 1021.18 1021.72 1022.31 1022.95 1023.61 1024.27 1024.89 1025.46 1025.94 1026.35 1026.68 1026.93 1027.12 1027.28 1027.42 1027.54 1027.65 1027.75 1027.83 1027.88 1027.90 1027.88 1027.83 1027.75 1027.67 1027.60
1009.09 1009.97 1010.84 1011.71 1012.60 1013.49 1014.38 1015.24 1016.06 1016.82 1017.50 1018.09 1018.62 1019.09 1019.52 1019.95 1020.40 1020.88 1021.42 1022.01 1022.63 1023.28 1023.93 1024.55 1025.11 1025.61 1026.03 1026.38 1026.66 1026.90 1027.10 1027.28 1027.44 1027.60 1027.73 1027.84 1027.91 1027.94 1027.92 1027.88 1027.81 1027.73 1027.67
1008.68 1009.56 1010.41 1011.25 1012.11 1012.97 1013.84 1014.69 1015.52 1016.29 1016.99 1017.63 1018.19 1018.69 1019.16 1019.60 1020.06 1020.54 1021.06 1021.62 1022.22 1022.84 1023.47 1024.07 1024.62 1025.13 1025.56 1025.94 1026.26 1026.55 1026.80 1027.03 1027.25 1027.44 1027.61 1027.75 1027.84 1027.89 1027.89 1027.85 1027.80 1027.73 1027.69
1008.24 1009.12 1009.96 1010.79 1011.62 1012.46 1013.30 1014.14 1014.96 1015.74 1016.46 1017.12 1017.72 1018.25 1018.74 1019.20 1019.65 1020.12 1020.62 1021.16 1021.72 1022.31 1022.90 1023.48 1024.03 1024.54 1025.00 1025.41 1025.78 1026.11 1026.42 1026.71 1026.97 1027.21 1027.42 1027.59 1027.70 1027.77 1027.79 1027.77 1027.73 1027.69 1027.66
1007.77 1008.67 1009.52 1010.34 1011.15 1011.96 1012.78 1013.60 1014.41 1015.19 1015.92 1016.60 1017.22 1017.77 1018.28 1018.75 1019.21 1019.67 1020.14 1020.64 1021.17 1021.72 1022.29 1022.85 1023.40 1023.92 1024.41 1024.86 1025.28 1025.67 1026.03 1026.36 1026.67 1026.95 1027.19 1027.38 1027.51 1027.60 1027.64 1027.65 1027.63 1027.61 1027.60
1007.30 1008.22 1009.08 1009.89 1010.69 1011.49 1012.28 1013.08 1013.87 1014.64 1015.38 1016.07 1016.70 1017.28 1017.81 1018.29 1018.76 1019.21 1019.67 1020.14 1020.64 1021.17 1021.71 1022.27 1022.82 1023.36 1023.88 1024.37 1024.84 1025.27 1025.68 1026.06 1026.40 1026.70 1026.95 1027.16 1027.31 1027.41 1027.47 1027.50 1027.52 1027.53 1027.56
1006.83 1007.77 1008.65 1009.47 1010.27 1011.05 1011.82 1012.59 1013.36 1014.12 1014.85 1015.55 1016.20 1016.80 1017.35 1017.86 1018.34 1018.80 1019.25 1019.72 1020.21 1020.73 1021.26 1021.82 1022.38 1022.94 1023.48 1024.01 1024.52 1024.99 1025.43 1025.83 1026.18 1026.49 1026.75 1026.96 1027.11 1027.23 1027.31 1027.36 1027.41 1027.46 1027.53
Thickness
5712 5711 5711 5710 5710 5709 5708 5707 5706 5705 5704 5704 5703 5703 5702 5702 5703 5704 5704 5705 5706 5707 5708 5709 5709 5710 5709 5709 5709 5709 5709 5709 5710 5710 5710 5710 5710 5710 5711 5711 5712 5713 5713
5709 5708 5706 5706 5705 5704 5703 5702 5701 5700 5698 5697 5697 5697 5697 5697 5697 5697 5698 5698 5700 5701 5702 5703 5704 5705 5704 5704 5704 5704 5704 5704 5704 5704 5705 5705 5705 5705 5706 5706 5707 5708 5709
5705 5703 5702 5701 5700 5700 5699 5697 5696 5695 5693 5692 5690 5690 5690 5690 5690 5691 5691 5692 5693 5694 5695 5697 5698 5699 5699 5699 5699 5699 5699 5699 5699 5699 5699 5699 5700 5700 5700 5701 5701 5702 5703
5701 5700 5698 5697 5696 5695 5694 5692 5690 5688 5686 5685 5684 5683 5684 5684 5684 5685 5685 5685 5686 5687 5688 5690 5691 5693 5694 5694 5694 5694 5694 5694 5694 5694 5694 5694 5694 5695 5695 5695 5696 5697 5698
5697 5696 5694 5693 5692 5691 5689 5688 5685 5683 5680 5679 5678 5677 5677 5677 5678 5678 5679 5679 5680 5681 5682 5684 5685 5686 5687 5688 5689 5689 5689 5689 5689 5689 5689 5689 5689 5689 5690 5690 5691 5691 5692
5693 5692 5691 5689 5688 5686 5684 5682 5679 5677 5675 5674 5673 5671 5670 5670 5671 5671 5672 5672 5673 5675 5676 5677 5678 5679 5681 5682 5683 5684 5684 5684 5684 5684 5684 5684 5684 5684 5685 5685 5685 5686 5686
5690 5689 5687 5685 5683 5681 5679 5677 5674 5671 5669 5668 5666 5663 5663 5664 5664 5664 5665 5666 5667 5668 5669 5671 5671 5672 5674 5675 5677 5678 5678 5678 5679 5679 5679 5679 5679 5679 5679 5680 5680 5681 5681
5686 5685 5683 5681 5679 5677 5674 5672 5670 5667 5664 5663 5660 5657 5653 5654 5656 5658 5658 5659 5659 5661 5662 5664 5664 5665 5666 5668 5669 5671 5671 5672 5673 5674 5674 5674 5673 5673 5674 5675 5675 5675 5676
5682 5681 5680 5678 5675 5674 5671 5669 5667 5664 5660 5658 5657 5653 5648 5645 5646 5649 5650 5651 5652 5654 5655 5657 5658 5658 5660 5661 5663 5664 5665 5666 5667 5667 5668 5668 5668 5668 5669 5669 5670 5670 5670
5679 5677 5676 5674 5672 5670 5668 5665 5664 5662 5659 5654 5652 5650 5648 5646 5642 5641 5643 5644 5646 5647 5648 5650 5651 5652 5654 5655 5657 5658 5659 5660 5661 5662 5663 5663 5663 5663 5664 5664 5665 5665 5665
5674 5674 5672 5670 5668 5666 5664 5662 5660 5658 5656 5653 5649 5646 5643 5640 5639 5637 5635 5637 5638 5640 5642 5643 5645 5646 5648 5650 5651 5652 5654 5655 5655 5656 5657 5657 5658 5658 5659 5660 5660 5660 5659
5670 5669 5668 5666 5664 5662 5661 5659 5657 5655 5652 5650 5647 5645 5642 5639 5636 5634 5631 5629 5630 5633 5635 5637 5639 5641 5642 5644 5646 5647 5649 5649 5650 5650 5651 5652 5652 5653 5654 5655 5655 5655 5654
5665 5664 5664 5662 5660 5659 5657 5655 5653 5651 5649 5646 5644 5642 5640 5638 5636 5633 5629 5626 5625 5626 5628 5631 5633 5635 5637 5638 5640 5641 5642 5644 5645 5645 5646 5646 5647 5647 5648 5649 5649 5649 5648
5662 5661 5659 5658 5656 5655 5653 5651 5649 5647 5645 5643 5641 5639 5636 5634 5633 5631 5628 5623 5620 5620 5622 5624 5627 5629 5631 5633 5634 5636 5637 5639 5640 5640 5640 5641 5642 5642 5642 5642 5643 5642 5642
5659 5657 5655 5653 5652 5650 5649 5647 5644 5642 5640 5638 5637 5635 5632 5630 5629 5627 5625 5623 5619 5615 5616 5618 5621 5624 5625 5628 5629 5631 5632 5633 5634 5635 5635 5636 5636 5636 5636 5636 5636 5636 5635
5655 5653 5651 5649 5647 5646 5644 5642 5639 5638 5635 5633 5632 5630 5628 5626 5624 5623 5621 5619 5617 5615 5612 5613 5615 5617 5620 5622 5624 5625 5627 5628 5629 5630 5630 5631 5631 5631 5631 5631 5631 5630 5629
5651 5649 5647 5645 5643 5640 5639 5637 5635 5633 5631 5629 5627 5625 5623 5622 5620 5618 5616 5614 5613 5611 5608 5608 5609 5612 5614 5617 5618 5620 5621 5623 5624 5624 5625 5625 5625 5625 5625 5625 5625 5624 5623
5647 5645 5643 5641 5638 5636 5634 5632 5630 5628 5626 5624 5622 5621 5619 5618 5615 5614 5612 5610 5609 5608 5606 5604 5605 5607 5609 5611 5613 5614 5615 5616 5617 5619 5619 5619 5620 5620 5620 5619 5619 5618 5618
5642 5640 5638 5636 5634 5632 5630 5628 5626 5624 5622 5620 5619 5617 5615 5613 5611 5609 5608 5607 5605 5605 5603 5601 5601 5601 5603 5605 5606 5608 5609 5610 5612 5613 5614 5614 5614 5614 5614 5614 5613 5613 5612
5638 5635 5633 5631 5629 5628 5626 5624 5622 5619 5618 5616 5614 5613 5611 5610 5609 5607 5605 5603 5602 5600 5599 5597 5596 5596 5597 5599 5600 5601 5602 5604 5605 5607 5607 5607 5608 5608 5608 5608 5608 5608 5607
5633 5630 5628 5626 5624 5623 5621 5619 5617 5615 5613 5611 5610 5609 5608 5607 5607 5605 5604 5601 5599 5596 5594 5592 5592 5592 5592 5593 5595 5595 5596 5597 5598 5600 5600 5601 5601 5602 5602 5602 5602 5602 5601
5626 5624 5622 5620 5619 5619 5618 5616 5614 5611 5608 5606 5604 5603 5603 5603 5602 5602 5601 5600 5598 5594 5591 5589 5588 5588 5589 5589 5590 5590 5590 5590 5591 5593 5592 5594 5595 5596 5596 5596 5597 5597 5596
5620 5618 5617 5615 5613 5613 5613 5612 5610 5607 5604 5601 5600 5599 5599 5599 5598 5596 5596 5595 5594 5593 5592 5589 5586 5586 5586 5587 5586 5585 5585 5584 5585 5586 5585 5587 5588 5589 5590 5590 5591 5591 5590
5614 5613 5611 5610 5608 5608 5608 5607 5605 5602 5599 5597 5596 5595 5594 5593 5593 5592 5590 5589 5588 5587 5587 5585 5584 5584 5584 5584 5584 5583 5582 5580 5579 5579 5579 5580 5581 5581 5584 5584 5585 5585 5584
5609 5607 5605 5604 5602 5602 5603 5602 5600 5596 5594 5592 5591 5590 5589 5589 5589 5588 5586 5583 5582 5581 5581 5581 5580 5580 5580 5580 5579 5578 5576 5574 5574 5573 5572 5572 5573 5573 5575 5577 5578 5578 5577
5604 5602 5600 5598 5597 5596 5597 5596 5595 5592 5589 5587 5586 5586 5585 5585 5584 5583 5581 5579 5577 5576 5575 5574 5574 5574 5574 5574 5574 5573 5572 5570 5568 5567 5567 5566 5566 5566 5568 5569 5570 5570 5570